Wind_Speed
7 8 9 11 11 11 14 16 17 18 18 17 17 15 14 14 14 14 18 18 17 17 17 18 19 20 19 19 21 22 21 21 21 21 21 22 24 24 24 24 25 26
9 9 10 10 10 10 13 15 16 18 18 17 17 17 16 17 17 17 18 18 17 18 18 19 20 21 20 20 21 21 21 21 21 22 22 22 23 24 24 24 25 26
11 11 10 11 11 11 12 13 14 17 18 18 18 18 19 19 19 19 19 19 19 19 18 20 22 21 22 23 22 22 22 21 22 23 23 22 23 24 24 24 25 26
12 11 11 12 12 12 13 12 13 14 16 18 19 20 20 21 20 20 20 20 20 19 17 18 20 21 21 23 24 25 24 22 22 24 24 24 24 25 24 24 25 26
12 12 12 12 13 14 14 14 13 13 14 16 18 21 21 21 20 20 21 21 20 19 18 17 18 19 21 22 24 26 25 24 24 24 25 25 25 26 25 24 25 26
14 14 13 13 13 14 15 15 14 14 15 15 17 20 20 19 19 19 21 22 20 20 20 18 17 18 19 21 23 25 25 26 26 25 25 26 26 26 25 24 24 25
16 17 16 16 15 14 14 15 16 15 16 17 17 18 19 18 19 19 19 19 20 20 22 20 18 18 19 19 21 23 25 26 26 26 26 27 26 26 26 25 25 26
15 17 18 18 18 17 15 14 15 15 15 17 18 18 18 17 18 18 18 19 21 22 24 23 22 20 20 20 22 23 24 25 26 26 26 27 27 28 27 25 25 27
14 15 16 17 18 19 18 16 15 14 14 16 18 18 18 18 18 19 19 21 23 24 24 24 25 23 21 20 21 23 25 25 25 26 27 29 30 28 27 25 26 28
13 14 14 15 16 17 18 18 16 14 12 13 15 17 18 18 19 20 21 22 24 25 25 25 26 24 20 19 20 22 24 25 25 26 27 29 30 28 27 27 27 27
15 14 14 14 14 15 16 17 16 14 13 13 14 17 18 18 18 20 22 23 24 26 27 27 29 26 21 20 20 21 23 24 25 26 26 27 29 29 29 29 28 26
16 15 15 15 16 16 16 16 16 13 12 12 13 16 17 18 19 19 20 22 23 26 27 28 29 26 22 21 23 23 23 24 25 26 26 27 28 28 28 30 30 27
17 15 15 16 16 17 16 16 16 14 13 12 12 14 16 17 18 19 20 21 22 24 25 27 27 25 22 23 25 26 25 24 25 26 26 26 26 27 28 30 29 28
17 15 15 16 16 17 16 15 15 15 14 14 14 15 16 17 18 19 20 21 22 24 25 26 25 23 22 24 27 27 27 26 27 26 26 26 27 28 29 29 29 29
17 15 16 17 16 17 16 16 15 14 14 16 17 18 19 20 20 20 19 19 20 22 24 26 25 22 22 25 27 28 28 28 27 26 26 28 29 30 29 29 29 29
18 17 17 17 17 17 17 17 17 16 15 15 17 20 21 22 23 23 23 22 21 19 21 23 25 23 23 25 27 28 28 28 26 24 26 29 31 31 30 29 29 29
18 18 19 18 18 18 17 17 18 19 19 18 16 17 19 20 22 24 25 26 25 23 21 20 20 21 24 27 27 27 28 28 26 24 25 27 29 31 29 28 28 28
19 19 19 19 18 18 18 18 18 20 22 21 18 17 16 15 17 19 21 23 25 27 26 23 21 22 25 26 26 27 28 28 28 28 27 27 29 30 30 30 30 27
20 20 19 20 20 19 18 18 19 22 24 23 21 20 19 17 15 15 15 17 19 23 26 27 26 25 25 25 25 26 27 28 30 29 28 28 28 30 32 32 29 26
20 20 19 20 20 20 19 20 22 24 25 25 25 24 23 22 20 19 17 17 16 16 19 23 26 27 27 25 25 26 26 27 29 29 28 28 29 30 32 30 26 25
20 20 19 20 20 20 20 21 23 24 25 26 27 26 26 25 24 23 22 21 20 20 19 18 20 25 27 27 26 26 25 26 27 29 29 27 29 31 30 25 23 24
19 19 19 20 20 20 21 21 22 24 24 25 26 25 25 26 26 27 27 25 24 24 23 22 18 18 22 26 27 27 26 24 24 27 27 25 27 29 26 22 22 22
19 19 18 19 19 19 21 21 21 21 22 24 24 23 22 23 25 27 28 28 27 25 24 25 24 22 18 19 23 25 28 26 23 25 27 25 25 27 24 21 21 21
18 18 18 18 19 19 19 20 19 19 20 21 22 21 20 21 22 23 25 27 27 25 24 23 23 24 23 20 17 17 21 24 23 25 27 24 22 22 23 23 23 24
17 17 17 17 18 19 19 18 18 18 18 18 19 20 20 20 20 21 23 24 25 24 23 22 22 21 21 21 18 13 12 15 20 24 24 21 22 21 22 25 25 25
17 17 18 18 18 19 19 18 18 18 18 17 17 18 19 18 19 20 21 22 23 25 25 25 25 24 21 20 16 9 5 9 15 18 18 19 20 19 20 24 25 23
Wind_Direction
324 309 292 277 273 277 277 277 273 269 268 264 258 255 254 257 257 257 259 255 246 242 240 239 236 231 230 231 234 235 236 239 238 234 232 232 233 234 237 237 235 236
334 326 317 305 293 280 276 280 281 278 277 272 267 264 262 260 258 259 262 260 253 246 240 240 240 237 233 233 235 235 234 235 234 233 232 233 232 232 234 233 231 235
331 327 319 312 305 293 282 279 282 284 285 283 278 271 265 263 263 264 265 262 258 253 246 241 241 241 238 237 237 236 235 235 234 234 233 232 232 231 231 230 230 233
326 322 315 309 306 304 299 291 285 286 289 290 286 278 267 262 261 259 260 263 262 258 252 245 241 239 239 240 241 240 240 238 235 235 234 233 235 235 232 230 229 231
325 319 316 313 312 311 306 301 296 289 289 289 287 285 275 264 261 257 254 258 262 259 253 247 242 237 235 237 240 242 241 237 233 232 233 234 235 235 231 228 229 228
331 325 324 322 319 313 304 303 301 293 292 289 283 285 281 269 265 261 254 255 262 263 256 248 241 239 236 234 238 241 240 238 235 233 233 233 232 232 229 227 229 227
334 330 327 324 319 312 306 305 303 295 293 291 285 285 284 275 268 263 255 254 260 262 259 255 246 241 238 234 235 240 239 238 236 233 233 232 229 232 232 230 231 229
333 329 326 323 321 318 313 308 302 297 293 292 290 287 284 278 270 263 256 254 255 254 255 257 252 243 238 234 234 237 238 237 235 233 234 232 230 232 232 229 230 230
330 326 322 319 317 316 314 309 302 297 292 290 291 290 286 282 277 270 261 255 254 253 253 256 255 248 244 241 236 236 238 238 237 235 234 233 233 233 230 228 230 231
336 327 319 313 310 309 310 311 310 306 297 287 286 289 288 284 279 275 270 264 258 257 256 254 253 250 246 245 241 239 240 241 240 238 236 235 234 235 232 229 230 231
346 338 330 324 318 313 311 313 315 317 317 307 293 289 287 283 279 274 273 270 264 260 257 252 251 247 244 249 250 246 243 241 240 239 237 233 232 236 236 232 231 232
351 347 344 342 337 332 325 320 318 314 312 307 296 292 289 283 280 276 274 271 265 262 258 253 252 247 242 248 251 248 245 243 241 238 237 236 234 235 235 233 232 232
351 350 349 348 346 343 336 327 321 311 300 293 286 289 288 283 282 281 278 274 269 266 264 259 259 255 245 244 247 247 247 248 246 241 239 239 236 233 234 235 235 233
352 352 352 351 350 348 343 334 326 314 303 294 287 286 283 279 282 282 280 279 273 270 269 266 267 267 257 249 248 249 248 249 250 247 241 238 236 236 237 236 234 233
353 354 355 354 355 355 352 348 342 330 314 298 288 284 280 277 278 279 282 286 281 277 277 273 271 272 266 258 252 251 251 250 251 249 244 241 241 240 237 233 231 231
355 356 356 356 357 358 357 356 356 351 338 316 293 282 277 275 276 276 276 279 279 281 284 282 278 275 270 265 259 252 249 248 250 252 248 245 245 242 235 229 228 228
358 358 357 357 358 357 357 358 358 358 355 344 321 301 289 281 277 275 274 274 273 274 276 280 282 275 266 265 265 260 252 245 244 246 244 244 245 241 233 227 225 225
359 359 359 360 359 358 359 359 0 3 4 2 353 341 328 311 297 289 284 281 277 274 272 271 272 270 266 265 266 264 259 250 244 240 238 241 243 236 229 226 223 221
359 0 1 2 1 1 359 359 3 8 10 11 10 6 1 354 342 328 315 303 290 281 276 273 271 269 267 267 266 265 262 255 249 245 241 238 233 225 224 225 221 214
0 1 3 2 2 3 2 2 7 11 11 11 13 14 13 10 4 358 350 339 324 306 290 280 275 271 268 266 264 264 263 257 251 247 241 230 219 218 223 223 215 213
2 2 4 4 3 4 5 6 11 13 12 10 9 11 14 13 9 5 360 352 344 336 325 307 286 271 265 264 263 259 257 257 252 242 235 226 215 219 226 220 211 213
4 5 7 6 6 7 7 6 9 13 15 13 7 5 10 14 13 10 6 358 351 346 344 341 326 292 267 258 257 256 255 256 251 238 228 220 216 221 224 219 214 214
7 7 8 8 7 8 7 5 6 9 13 15 10 5 7 15 17 15 11 6 360 354 350 348 344 335 313 277 256 250 248 249 246 237 227 218 218 222 220 213 211 207
8 7 7 7 6 6 6 5 4 4 6 12 15 11 8 13 18 21 18 14 9 2 356 352 348 345 340 323 296 267 253 248 240 235 230 215 203 206 209 209 208 202
9 8 6 6 6 5 4 3 3 3 3 7 14 17 16 14 17 23 27 24 19 12 9 9 6 360 353 342 328 308 275 248 227 222 220 199 180 183 194 197 196 191
11 9 9 9 8 6 5 4 4 4 3 4 10 16 20 17 12 16 22 25 24 20 16 17 18 15 12 5 355 339 279 233 214 205 200 191 188 191 189 186 183 179
Height
1514 1514 1513 1512 1512 1512 1511 1510 1510 1510 1510 1510 1509 1508 1507 1507 1508 1508 1509 1507 1506 1505 1505 1505 1505 1506 1506 1507 1507 1507 1508 1510 1511 1512 1513 1513 1515 1517 1518 1520 1522 1524
1513 1512 1511 1511 1510 1510 1510 1509 1509 1508 1508 1508 1507 1506 1506 1506 1506 1507 1508 1507 1505 1504 1503 1503 1503 1504 1504 1504 1504 1504 1505 1506 1508 1509 1510 1510 1511 1513 1515 1517 1519 1521
1512 1511 1510 1510 1509 1509 1508 1508 1508 1507 1506 1506 1505 1505 1504 1504 1505 1506 1506 1506 1504 1503 1501 1501 1501 1501 1502 1501 1501 1501 1502 1503 1504 1506 1507 1508 1508 1510 1512 1514 1516 1518
1511 1510 1509 1508 1508 1507 1507 1507 1507 1506 1505 1504 1503 1503 1502 1502 1502 1503 1504 1504 1503 1502 1500 1499 1498 1498 1499 1499 1499 1498 1499 1500 1501 1503 1504 1505 1505 1506 1509 1511 1513 1514
1510 1509 1508 1507 1507 1506 1506 1506 1505 1505 1504 1504 1502 1501 1500 1500 1500 1500 1501 1502 1502 1500 1499 1498 1497 1496 1496 1497 1496 1496 1496 1497 1498 1499 1501 1502 1502 1503 1505 1507 1508 1509
1509 1508 1507 1506 1506 1505 1505 1505 1504 1504 1503 1503 1501 1500 1499 1498 1498 1498 1499 1499 1500 1499 1498 1497 1496 1494 1494 1494 1494 1494 1494 1494 1495 1496 1497 1498 1499 1501 1502 1504 1505 1507
1508 1507 1506 1505 1504 1504 1503 1503 1503 1502 1502 1501 1500 1499 1498 1497 1496 1497 1497 1497 1497 1497 1497 1497 1495 1493 1493 1493 1492 1492 1492 1492 1492 1493 1494 1495 1496 1497 1499 1500 1502 1504
1508 1507 1506 1504 1503 1502 1501 1501 1501 1500 1500 1499 1498 1497 1496 1495 1495 1495 1495 1495 1495 1495 1495 1495 1495 1493 1491 1491 1490 1490 1490 1490 1490 1491 1491 1492 1493 1494 1495 1497 1498 1500
1508 1507 1505 1504 1502 1501 1500 1499 1498 1498 1498 1497 1496 1496 1495 1494 1493 1493 1493 1493 1493 1492 1492 1492 1492 1491 1489 1488 1487 1487 1487 1487 1488 1488 1489 1489 1489 1491 1493 1494 1495 1496
1508 1506 1505 1503 1501 1500 1498 1497 1496 1496 1495 1495 1495 1494 1493 1492 1492 1491 1491 1490 1490 1489 1489 1490 1490 1488 1487 1486 1485 1485 1485 1486 1486 1486 1486 1486 1487 1489 1490 1491 1491 1492
1507 1505 1504 1502 1500 1499 1497 1496 1495 1495 1494 1494 1494 1493 1492 1491 1490 1489 1488 1487 1487 1486 1486 1487 1486 1484 1484 1484 1483 1483 1482 1483 1483 1483 1484 1484 1485 1486 1488 1489 1489 1489
1508 1505 1503 1501 1500 1498 1497 1495 1494 1493 1493 1492 1492 1491 1490 1489 1488 1487 1486 1485 1485 1483 1483 1483 1481 1480 1481 1481 1480 1480 1479 1479 1480 1481 1482 1483 1484 1485 1485 1486 1487 1487
1509 1506 1504 1502 1500 1498 1496 1494 1493 1492 1491 1490 1490 1489 1488 1487 1486 1485 1484 1483 1483 1481 1480 1479 1478 1478 1478 1478 1477 1477 1478 1478 1478 1478 1479 1481 1483 1483 1484 1484 1484 1485
1510 1507 1505 1503 1501 1498 1496 1494 1492 1491 1490 1489 1488 1487 1485 1484 1483 1482 1481 1481 1480 1478 1477 1476 1476 1476 1476 1475 1475 1475 1476 1476 1476 1476 1478 1479 1481 1481 1482 1482 1482 1483
1511 1509 1506 1504 1502 1499 1497 1494 1492 1491 1489 1488 1486 1485 1483 1482 1480 1479 1478 1477 1476 1475 1474 1473 1473 1474 1474 1474 1473 1473 1474 1474 1474 1476 1477 1478 1478 1479 1480 1480 1480 1481
1512 1510 1508 1505 1503 1500 1498 1495 1493 1490 1488 1486 1484 1482 1481 1479 1478 1477 1475 1474 1473 1472 1471 1471 1471 1472 1473 1472 1471 1471 1472 1473 1473 1474 1475 1476 1476 1476 1477 1478 1479 1479
1512 1510 1508 1506 1503 1501 1498 1496 1493 1491 1488 1485 1483 1480 1479 1477 1476 1474 1473 1472 1471 1470 1469 1469 1469 1469 1469 1468 1467 1467 1468 1470 1472 1472 1473 1474 1474 1474 1474 1475 1475 1475
1512 1510 1508 1506 1503 1501 1499 1497 1494 1491 1488 1485 1482 1480 1478 1476 1474 1473 1471 1470 1469 1468 1467 1467 1466 1466 1465 1465 1464 1464 1465 1466 1468 1468 1469 1471 1471 1471 1472 1472 1472 1473
1512 1510 1508 1506 1504 1502 1500 1497 1494 1492 1489 1486 1483 1480 1477 1475 1474 1472 1470 1469 1467 1466 1465 1464 1464 1463 1462 1462 1462 1461 1462 1463 1464 1465 1466 1467 1468 1469 1470 1469 1469 1470
1513 1511 1509 1507 1505 1502 1500 1497 1495 1492 1490 1487 1484 1481 1478 1475 1473 1471 1469 1467 1466 1465 1464 1462 1461 1461 1459 1459 1458 1458 1459 1460 1461 1462 1462 1463 1465 1466 1466 1466 1466 1468
1514 1512 1510 1508 1505 1503 1500 1498 1495 1492 1490 1488 1485 1482 1479 1476 1474 1471 1469 1467 1465 1463 1461 1460 1459 1457 1456 1456 1455 1455 1456 1456 1458 1459 1459 1460 1462 1464 1465 1466 1466 1466
1515 1513 1511 1509 1507 1504 1501 1499 1496 1493 1491 1488 1486 1484 1481 1478 1475 1472 1469 1467 1464 1462 1460 1458 1456 1454 1452 1452 1452 1452 1452 1453 1455 1457 1458 1458 1459 1461 1463 1465 1465 1466
1516 1514 1512 1510 1508 1506 1504 1501 1498 1495 1492 1489 1487 1485 1483 1480 1477 1474 1471 1468 1465 1462 1460 1457 1455 1452 1450 1448 1448 1449 1449 1450 1452 1455 1457 1457 1458 1461 1462 1462 1463 1466
1518 1516 1514 1512 1510 1508 1506 1503 1500 1497 1494 1491 1489 1486 1484 1482 1479 1476 1473 1470 1467 1465 1462 1459 1456 1453 1450 1448 1446 1446 1446 1447 1450 1452 1454 1454 1456 1458 1459 1459 1461 1465
1519 1517 1515 1513 1511 1509 1507 1505 1502 1500 1496 1493 1490 1488 1486 1484 1482 1479 1476 1473 1470 1468 1466 1462 1459 1455 1453 1450 1447 1446 1446 1446 1447 1449 1450 1451 1452 1455 1457 1458 1460 1463
1520 1518 1516 1514 1513 1511 1509 1506 1504 1502 1499 1496 1493 1490 1487 1486 1484 1481 1478 1475 1473 1471 1468 1465 1462 1459 1456 1454 1451 1449 1448 1448 1448 1447 1448 1450 1451 1455 1457 1458 1460 1463